This demonstration page uses our WeatherBlox Daily Observations layout. Learn more.

Left ArrowRight Arrow

Hourly Observations for November 14, 2016

Temp ( °F °C ) Dew Point ( °F °C ) Humidity (%) Winds ( mph kmh ) Pressure ( in mb ) Visibility ( mi km ) Precip ( " mm )
12:51 am 00:51 Clear 46 7.8 37 2.8 71 71 N N/A 30.11 1020 10 16.0934 N/A
1:51 am 01:51 Clear 47 8.3 36 2.2 66 66 N N/A 30.1 1019 10 16.0934 N/A
2:51 am 02:51 Clear 44 6.7 36 2.2 73 73 N 3 6 30.11 1020 10 16.0934 N/A
3:51 am 03:51 Clear 41 5 35 1.7 79 79 N N/A 30.12 1020 10 16.0934 N/A
4:51 am 04:51 Clear 41 5 35 1.7 79 79 N N/A 30.14 1021 10 16.0934 N/A
5:51 am 05:51 Clear 41 5 34 1.1 76 76 N N/A 30.17 1022 10 16.0934 N/A
6:51 am 06:51 Sunny 40 4.4 34 1.1 79 79 S 3 6 30.2 1023 10 16.0934 N/A
7:51 am 07:51 Sunny 45 7.2 34 1.1 66 66 N N/A 30.22 1023 10 16.0934 N/A
8:51 am 08:51 Sunny 54 12.2 36 2.2 51 51 S 3 6 30.22 1023 10 16.0934 N/A
9:51 am 09:51 Sunny 59 15 37 2.8 44 44 SSW 3 6 30.21 1023 10 16.0934 N/A
10:51 am 10:51 Sunny 64 17.8 37 2.8 37 37 S 5 7 30.19 1023 10 16.0934 N/A
11:51 am 11:51 Sunny 69 20.6 33 0.6 26 26 SSE 8 13 30.15 1021 10 16.0934 N/A
12:51 pm 12:51 Sunny 73 22.8 32 undefined 22 22 SSE 10 17 30.11 1020 10 16.0934 N/A
1:51 pm 13:51 Sunny 74 23.3 28 -2.2 18 18 VRB 6 9 30.08 1019 10 16.0934 N/A
2:51 pm 14:51 Sunny 76 24.4 27 -2.8 16 16 SSE 7 11 30.08 1019 10 16.0934 N/A
3:51 pm 15:51 Sunny 77 25 27 -2.8 16 16 N N/A 30.07 1018 10 16.0934 N/A
4:51 pm 16:51 Sunny 74 23.3 29 -1.7 19 19 N N/A 30.07 1018 10 16.0934 N/A
5:51 pm 17:51 Clear 65 18.3 31 -0.6 28 28 N N/A 30.1 1019 10 16.0934 N/A
6:51 pm 18:51 Clear 61 16.1 31 -0.6 32 32 N N/A 30.12 1020 10 16.0934 N/A
7:51 pm 19:51 Clear 56 13.3 31 -0.6 39 39 E 3 6 30.13 1020 10 16.0934 N/A
8:51 pm 20:51 Clear 55 12.8 33 0.6 44 44 ESE 6 9 30.12 1020 10 16.0934 N/A
9:51 pm 21:51 Clear 51 10.6 33 0.6 50 50 SE 6 9 30.12 1020 10 16.0934 N/A
10:51 pm 22:51 Clear 51 10.6 33 0.6 50 50 SE 5 7 30.13 1020 10 16.0934 N/A
11:51 pm 23:51 Clear 50 10 33 0.6 52 52 VRB 3 6 30.12 1020 10 16.0934 N/A

Powered by AerisWeather